Time_in_sec,Mx,My,Mz
1323446134.84453607,-0.36606663,0.47502279,-0.80897099
1323446134.89365840,-0.36730525,0.47639388,-0.81235844
1323446134.94450569,-0.36516440,0.47671959,-0.81109786
1323446135.01356316,-0.36578697,0.47686505,-0.81291521
1323446135.04452443,-0.36626917,0.47225124,-0.80832577
1323446135.09373260,-0.36878714,0.47495455,-0.81128353
1323446135.14552641,-0.36756238,0.47507456,-0.81249040
1323446135.19367766,-0.36767474,0.47663462,-0.81199843
1323446135.24172521,-0.36798504,0.47578272,-0.81073630
1323446135.29366970,-0.36608884,0.47781384,-0.81128353
1323446135.34156966,-0.36654115,0.47468278,-0.81052214
1323446135.39249635,-0.36668077,0.47696894,-0.81041878
1323446135.44554496,-0.36678785,0.47684586,-0.81004184
1323446135.50448895,-0.36588383,0.47829995,-0.81146634
1323446135.54556203,-0.36551854,0.47373557,-0.81243211
1323446135.59250307,-0.36530784,0.47638479,-0.81294852
1323446135.64160252,-0.36733064,0.47495565,-0.81228530
1323446135.69253778,-0.36610883,0.47543651,-0.81349468
1323446135.74501324,-0.36670172,0.47589007,-0.81022114
1323446135.79251766,-0.36590943,0.47782630,-0.81267416
1323446135.84449434,-0.36708868,0.47649610,-0.81081963
1323446135.89451814,-0.36677930,0.47746831,-0.81208265
1323446135.94450545,-0.36691734,0.47759145,-0.81221843
1323446135.99353361,-0.36618295,0.47675040,-0.81306338
1323446136.04462981,-0.36633319,0.47673237,-0.81116188
1323446136.09445119,-0.36627263,0.47722477,-0.81230783
1323446136.14449573,-0.36723918,0.47712553,-0.81337845
1323446136.20051479,-0.36604950,0.47626767,-0.81305265
1323446136.24149227,-0.36596096,0.47399125,-0.81405008
1323446136.29431462,-0.36691195,0.47751504,-0.81597167
1323446136.34449887,-0.36668158,0.47398758,-0.81237024
1323446136.39248633,-0.36444187,0.47626290,-0.81366396
1323446136.44451785,-0.36642680,0.47641146,-0.81440997
1323446136.49253416,-0.36594483,0.47653303,-0.81502086
1323446136.54454541,-0.36676949,0.47518358,-0.81219321
1323446136.59452462,-0.36664996,0.47833139,-0.81424594
1323446136.64463925,-0.36599085,0.47603953,-0.81432086
1323446136.69251204,-0.36684960,0.47712126,-0.81335711
1323446136.74569511,-0.36583987,0.47711545,-0.81381106
1323446136.79254723,-0.36671656,0.47846422,-0.81539625
1323446136.84453106,-0.36590514,0.47530228,-0.81291056
1323446136.89262128,-0.36643872,0.47701609,-0.81524348
1323446136.94566059,-0.36648905,0.47594431,-0.81625700
1323446136.99357748,-0.36629966,0.47773385,-0.81498635
1323446137.04154873,-0.36829114,0.47497666,-0.81392992
1323446137.09249783,-0.36648792,0.47774640,-0.81601518
1323446137.14194536,-0.36612982,0.47628298,-0.81445754
1323446137.19363999,-0.36633357,0.47641864,-0.81574267
1323446137.24204421,-0.36701056,0.47640771,-0.81399739
1323446137.29364848,-0.36655489,0.47713506,-0.81499606
1323446137.34450054,-0.36829516,0.47461584,-0.81335390
1323446137.39250326,-0.36749366,0.47726905,-0.81485623
1323446137.44464040,-0.36761901,0.47666901,-0.81485885
1323446137.49389863,-0.36443636,0.47650209,-0.81353807
1323446137.54556870,-0.36788186,0.47532779,-0.81282723
1323446137.59360909,-0.36677405,0.47835502,-0.81641710
1323446137.64188385,-0.36623496,0.47688046,-0.81395829
1323446137.69265914,-0.36794883,0.47642320,-0.81455803
1323446137.74554491,-0.36645433,0.47617802,-0.81562024
1323446137.79249501,-0.36516836,0.47688714,-0.81568229
1323446137.84567571,-0.36630204,0.47434559,-0.81247926
1323446137.89374113,-0.36650324,0.47786751,-0.81557000
1323446137.94450974,-0.36650014,0.47568136,-0.81351787
1323446137.99364805,-0.36524996,0.47723794,-0.81409693
1323446138.04451585,-0.36700591,0.47484359,-0.81341225
1323446138.09353304,-0.36465394,0.47834754,-0.81782871
1323446138.14461374,-0.36666656,0.47665241,-0.81474411
1323446138.19252491,-0.36746395,0.47714502,-0.81504583
1323446138.24529052,-0.36731398,0.47738007,-0.81465739
1323446138.29363155,-0.36680260,0.47845730,-0.81463712
1323446138.34452319,-0.36598751,0.47577527,-0.81202734
1323446138.39255238,-0.36638081,0.47690651,-0.81581104
1323446138.44161940,-0.36703399,0.47665080,-0.81368124
1323446138.49265409,-0.36618620,0.47701287,-0.81465566
1323446138.54556894,-0.36846688,0.47534597,-0.81400484
1323446138.60464215,-0.36660478,0.47798365,-0.81506729
1323446138.64162302,-0.36657792,0.47533718,-0.81562102
1323446138.69351673,-0.36876616,0.47550112,-0.81765151
1323446138.74550486,-0.36704209,0.47751838,-0.81668037
1323446138.79361176,-0.36600688,0.47702712,-0.81674755
1323446138.84449315,-0.36705446,0.47545484,-0.81488413
1323446138.89353395,-0.36628094,0.47799191,-0.81619513
1323446138.94559050,-0.36637980,0.47774717,-0.81568968
1323446138.99250650,-0.36719751,0.47725928,-0.81420362
1323446139.04452133,-0.36791065,0.47607732,-0.81550699
1323446139.09352207,-0.36538130,0.47726297,-0.81639528
1323446139.14564157,-0.36748567,0.47522542,-0.81496859
1323446139.19256043,-0.36688465,0.47678912,-0.81558323
1323446139.24234247,-0.36754483,0.47631782,-0.81587052
1323446139.29353523,-0.36652154,0.47739050,-0.81594944
1323446139.34155273,-0.36653474,0.47640869,-0.81403404
1323446139.39253235,-0.36642089,0.47739464,-0.81645310
1323446139.44491792,-0.36674392,0.47630513,-0.81544477
1323446139.49355054,-0.36678222,0.47655267,-0.81608504
1323446139.54224133,-0.36737224,0.47546738,-0.81521863
1323446139.59254146,-0.36590603,0.47799042,-0.81642920
1323446139.64452195,-0.36648145,0.47690237,-0.81530738
1323446139.69364738,-0.36823279,0.47753537,-0.81712759
1323446139.74151802,-0.36612213,0.47702575,-0.81649923
1323446139.80050755,-0.36692491,0.47824028,-0.81680644
1323446139.84155560,-0.36772993,0.47585070,-0.81759733
1323446139.89421964,-0.36596203,0.47572020,-0.81839079
1323446139.94452715,-0.36756548,0.47512180,-0.81707388
1323446139.99365854,-0.36801055,0.47669861,-0.81787330
1323446140.04759049,-0.36631078,0.47629413,-0.81535864
1323446140.09262371,-0.36540854,0.47799093,-0.81748551
1323446140.14207292,-0.36742371,0.47547856,-0.81681406
1323446140.19265580,-0.36747470,0.47644949,-0.81758761
1323446140.24155664,-0.36591172,0.47679198,-0.81737721
1323446140.29403591,-0.36672449,0.47836891,-0.81781483
1323446140.34451437,-0.36827245,0.47619793,-0.81571990
1323446140.39350963,-0.36592540,0.47667444,-0.81763172
1323446140.44496489,-0.36774352,0.47669435,-0.81773138
1323446140.49363828,-0.36684266,0.47680610,-0.81781018
1323446140.54155231,-0.36495817,0.47473097,-0.81680119
1323446140.59253144,-0.36687458,0.47717264,-0.81832373
1323446140.64491320,-0.36784843,0.47707480,-0.81952208
1323446140.69378686,-0.36615106,0.47681427,-0.81930006
1323446140.74462986,-0.36597741,0.47680449,-0.81852663
1323446140.79263163,-0.36658627,0.47706753,-0.82008952
1323446140.84450221,-0.36645678,0.47632194,-0.81791294
1323446140.89365983,-0.36682600,0.47634566,-0.81984288
1323446140.94180322,-0.36696959,0.47622955,-0.82010448
1323446141.00150847,-0.36756462,0.47757128,-0.82129234
1323446141.04449868,-0.36656511,0.47600546,-0.82211769
1323446141.09365106,-0.36684844,0.47721431,-0.82239640
1323446141.14451265,-0.36691487,0.47573850,-0.81920689
1323446141.19248533,-0.36876452,0.47686911,-0.82198954
1323446141.24164033,-0.36606026,0.47600254,-0.82234466
1323446141.29272509,-0.36645705,0.47696939,-0.82237321
1323446141.34452939,-0.36813116,0.47527975,-0.82016128
1323446141.40451574,-0.36731860,0.47745091,-0.82153267
1323446141.44559407,-0.36594409,0.47588357,-0.82259202
1323446141.49363708,-0.36652818,0.47481897,-0.82318640
1323446141.54151940,-0.36801314,0.47578311,-0.82187438
1323446141.59364271,-0.36521682,0.47696450,-0.82262081
1323446141.64163589,-0.36754757,0.47614804,-0.82274246
1323446141.69362521,-0.36779445,0.47638869,-0.82250315
1323446141.74153566,-0.36575752,0.47707286,-0.82144457
1323446141.79657006,-0.36666557,0.47792369,-0.82137299
1323446141.84152579,-0.36733368,0.47574833,-0.81973910
1323446141.89350700,-0.36630428,0.47780466,-0.82186157
1323446141.94155645,-0.36836800,0.47611928,-0.81967103
1323446141.99349856,-0.36620387,0.47802585,-0.82007539
1323446142.04449725,-0.36824822,0.47551903,-0.81991482
1323446142.09359336,-0.36753812,0.47792670,-0.82078421
1323446142.14453816,-0.36652339,0.47645479,-0.81906325
1323446142.19250846,-0.36613172,0.47599283,-0.82133001
1323446142.24565148,-0.36622205,0.47850993,-0.82033443
1323446142.29435825,-0.36645731,0.47718644,-0.82008326
1323446142.34566307,-0.36787182,0.47453275,-0.81797761
1323446142.39364409,-0.36717224,0.47816727,-0.82114780
1323446142.44450951,-0.36611918,0.47644773,-0.81878650
1323446142.49364114,-0.36699983,0.47753364,-0.81820583
1323446142.54564524,-0.36707678,0.47728470,-0.81731719
1323446142.60052657,-0.36714610,0.47777849,-0.81847024
1323446142.64156461,-0.36616948,0.47537595,-0.81980008
1323446142.69420481,-0.36692768,0.47550064,-0.81946051
1323446142.74564528,-0.36782214,0.47550783,-0.81925488
1323446142.79364729,-0.36619550,0.47790214,-0.81924450
1323446142.84850335,-0.36767837,0.47583944,-0.81600171
1323446142.89364886,-0.36750218,0.47707707,-0.81956464
1323446142.94565344,-0.36704159,0.47633851,-0.81838870
1323446142.99270058,-0.36701602,0.47681412,-0.81788158
1323446143.04565048,-0.36737543,0.47669256,-0.81739128
1323446143.09408069,-0.36431393,0.47811031,-0.81799757
1323446143.14206481,-0.36673114,0.47654292,-0.81519121
1323446143.19262266,-0.36773756,0.47693184,-0.81690365
1323446143.24451470,-0.36771464,0.47776833,-0.81639922
1323446143.29251647,-0.36754805,0.47754300,-0.81804311
1323446143.34153247,-0.36752126,0.47511208,-0.81560612
1323446143.39253116,-0.36747238,0.47716820,-0.81676358
1323446143.44167304,-0.36698052,0.47596651,-0.81736451
1323446143.49394274,-0.36703908,0.47715560,-0.81597608
1323446143.54451847,-0.36918432,0.47560766,-0.81589288
1323446143.59365630,-0.36482978,0.47785378,-0.81643444
1323446143.64193511,-0.36805561,0.47608310,-0.81647104
1323446143.69364786,-0.36728454,0.47715747,-0.81643647
1323446143.74450374,-0.36717153,0.47569412,-0.81463760
1323446143.80554366,-0.36777020,0.47751719,-0.81582910
1323446143.84094548,-0.36672994,0.47620565,-0.81747979
1323446143.89378715,-0.36660162,0.47622782,-0.81976390
1323446143.94523978,-0.36705998,0.47800043,-0.81623781
1323446143.99353433,-0.36656982,0.47800031,-0.81672013
1323446144.04168797,-0.36878842,0.47680208,-0.81492376
1323446144.09250355,-0.36678484,0.47979888,-0.81642795
1323446144.14453173,-0.36882788,0.48101655,-0.81578457
1323446144.20455933,-0.36902434,0.48115081,-0.81694198
1323446144.24568534,-0.36934078,0.47996292,-0.81809658
1323446144.29366708,-0.36868304,0.48175648,-0.81769145
1323446144.34553647,-0.36889246,0.48177031,-0.81840128
1323446144.39362502,-0.36626077,0.48175853,-0.81991190
1323446144.44152761,-0.36474410,0.48160592,-0.81830049
1323446144.49315214,-0.36360615,0.48258325,-0.82091808
1323446144.54550219,-0.36516491,0.47897342,-0.81919575
1323446144.59252524,-0.36248854,0.48087794,-0.82040167
1323446144.64555979,-0.36482030,0.47835591,-0.81847441
1323446144.69353080,-0.36420378,0.47883564,-0.81895328
1323446144.74149418,-0.36495975,0.47689402,-0.81656206
1323446144.79357338,-0.36451319,0.47786343,-0.81769025
1323446144.85066128,-0.36587790,0.47714600,-0.81674135
1323446144.89252901,-0.36511037,0.47656226,-0.81924134
1323446144.94555974,-0.36766413,0.47679937,-0.81632739
1323446144.99261856,-0.36601302,0.47669113,-0.81916434
1323446145.04154420,-0.36746019,0.47548550,-0.81745267
1323446145.09380722,-0.36621884,0.47728446,-0.81816137
1323446145.14451432,-0.36601213,0.47657081,-0.81916344
1323446145.19356656,-0.36681399,0.47766504,-0.81946969
1323446145.24451590,-0.36679998,0.47499570,-0.81728572
1323446145.29353094,-0.36613187,0.47717106,-0.81891966
1323446145.34564042,-0.36763567,0.47573590,-0.81822783
1323446145.39250493,-0.36569828,0.47597867,-0.81984001
1323446145.44563651,-0.36677912,0.47693574,-0.81825131
1323446145.49423718,-0.36807799,0.47781426,-0.82049233
1323446145.54165077,-0.36605039,0.47585568,-0.81922203
1323446145.59265804,-0.36563888,0.47680822,-0.81869715
1323446145.64158583,-0.36751914,0.47636110,-0.82064474
1323446145.69364882,-0.36784366,0.47625613,-0.82180750
1323446145.74156260,-0.36610162,0.47586694,-0.82081825
1323446145.79275608,-0.36659771,0.47841468,-0.82239121
1323446145.84552169,-0.36772227,0.47659346,-0.81963903
1323446145.89411259,-0.36700651,0.47731614,-0.81992108
1323446145.94451928,-0.36727259,0.47720006,-0.82006210
1323446145.99293804,-0.36720932,0.47733146,-0.82120508
1323446146.04457211,-0.36758015,0.47598749,-0.81879753
1323446146.09251142,-0.36689559,0.47674102,-0.82258373
1323446146.14548540,-0.36670476,0.47829163,-0.82201427
1323446146.19250464,-0.36517018,0.47755817,-0.82243431
1323446146.24552584,-0.36686352,0.47551173,-0.82060283
1323446146.29401040,-0.36657733,0.47843415,-0.82429981
1323446146.34150147,-0.36679116,0.47540110,-0.82161653
1323446146.39251542,-0.36705425,0.47780764,-0.82139343
1323446146.44447660,-0.36673108,0.47697324,-0.82194000
1323446146.49351907,-0.36691189,0.47794536,-0.82272053
1323446146.54551053,-0.36679354,0.47576058,-0.82091659
1323446146.59256530,-0.36768720,0.47843367,-0.82263911
1323446146.64449835,-0.36705282,0.47650740,-0.82309979
1323446146.69380450,-0.36599582,0.47697303,-0.82266349
1323446146.74159646,-0.36720556,0.47567230,-0.82361132
1323446146.79249811,-0.36644092,0.47758850,-0.82358313
1323446146.84182000,-0.36612576,0.47601348,-0.82279104
1323446146.89383578,-0.36749971,0.47736347,-0.82402128
1323446146.94553256,-0.36777490,0.47662681,-0.82282478
1323446146.99368787,-0.36585322,0.47817248,-0.82298529
1323446147.04854298,-0.36614621,0.47695681,-0.82146502
1323446147.09370112,-0.36731157,0.47809696,-0.82586527
1323446147.14451528,-0.36650535,0.47757936,-0.82314402
1323446147.19358301,-0.36783150,0.47639731,-0.82384473
1323446147.24155903,-0.36771354,0.47603768,-0.82409030
1323446147.29353213,-0.36612168,0.47916150,-0.82529849
1323446147.34152985,-0.36845163,0.47639886,-0.82336944
1323446147.40053558,-0.36660025,0.47759745,-0.82480431
1323446147.44554758,-0.36735955,0.47592005,-0.82470661
1323446147.49356174,-0.36651722,0.47508174,-0.82592762
1323446147.54454517,-0.36849555,0.47544599,-0.82425618
1323446147.59354901,-0.36659935,0.47747710,-0.82480341
1323446147.64154506,-0.36496526,0.47708517,-0.82343817
1323446147.69354439,-0.36667091,0.47650620,-0.82390928
1323446147.74554896,-0.36794677,0.47639593,-0.82359642
1323446147.80051780,-0.36789429,0.47797123,-0.82475048
1323446147.84153628,-0.36802629,0.47532973,-0.82512081
1323446147.89392686,-0.36654159,0.47736928,-0.82607257
1323446147.94448352,-0.36829960,0.47617620,-0.82526910
1323446147.99357986,-0.36558875,0.47638813,-0.82467353
1323446148.04455829,-0.36720467,0.47555202,-0.82361042
1323446148.09354377,-0.36551067,0.47843868,-0.82532018
1323446148.14229774,-0.36816907,0.47617316,-0.82455856
1323446148.19254041,-0.36675996,0.47676179,-0.82474023
1323446148.24228907,-0.36677629,0.47518131,-0.82365102
1323446148.29428315,-0.36761189,0.47688270,-0.82447267
1323446148.34152722,-0.36832267,0.47651774,-0.82336324
1323446148.39365125,-0.36726508,0.47772765,-0.82509625
1323446148.44150114,-0.36653745,0.47602350,-0.82389855
1323446148.49364877,-0.36750460,0.47892815,-0.82460868
1323446148.54563689,-0.36758828,0.47567669,-0.82420820
1323446148.59261441,-0.36618045,0.47842848,-0.82415074
1323446148.64114833,-0.36740461,0.47530457,-0.82330436
1323446148.69413114,-0.36785689,0.47784397,-0.82411098
1323446148.74563718,-0.36693218,0.47578698,-0.82334262
1323446148.79363775,-0.36631107,0.47758707,-0.82357603
1323446148.84213352,-0.36808282,0.47553280,-0.82085824
1323446148.89262462,-0.36752108,0.47650334,-0.82223445
1323446148.94151616,-0.36694977,0.47636765,-0.82131130
1323446148.99289894,-0.36695415,0.47793010,-0.82119536
1323446149.04152703,-0.36779305,0.47540411,-0.82033235
1323446149.09400439,-0.36477652,0.47716752,-0.81941622
1323446149.14110613,-0.36711147,0.47673550,-0.82183188
1323446149.19262886,-0.36711496,0.47817767,-0.82171506
1323446149.24099803,-0.36737254,0.47515368,-0.81979847
1323446149.29362416,-0.36642390,0.47744185,-0.82103562
1323446149.34565973,-0.36811689,0.47539586,-0.81920451
1323446149.39349532,-0.36575654,0.47695076,-0.82074106
1323446149.44566059,-0.36732048,0.47598463,-0.81878328
1323446149.49357820,-0.36707669,0.47793013,-0.82107478
1323446149.54552150,-0.36619073,0.47451442,-0.81731099
1323446149.59365082,-0.36692306,0.47864491,-0.82056236
1323446149.64849591,-0.36727372,0.47539842,-0.82030392
1323446149.69365191,-0.36588448,0.47767258,-0.82062590
1323446149.74157476,-0.36641082,0.47489342,-0.81885302
1323446149.79250145,-0.36586708,0.47826988,-0.82024735
1323446149.84560966,-0.36663941,0.47561109,-0.81823426
1323446149.89370871,-0.36697745,0.47634959,-0.81953079
1323446149.94153166,-0.36717144,0.47633994,-0.81839579
1323446149.99262905,-0.36676964,0.47743776,-0.82029080
1323446150.04171085,-0.36599329,0.47618344,-0.81661350
1323446150.09262824,-0.36592326,0.47717795,-0.81979942
1323446150.14072394,-0.36703733,0.47669974,-0.81896579
1323446150.20553708,-0.36695704,0.47668442,-0.81756097
1323446150.24074721,-0.36548826,0.47500232,-0.81925088
1323446150.29358840,-0.36664927,0.47671908,-0.82123619
1323446150.34072804,-0.36746302,0.47488528,-0.81757581
1323446150.39264965,-0.36738783,0.47537488,-0.81846637
1323446150.44453001,-0.36760500,0.47827658,-0.81964463
1323446150.49364471,-0.36542055,0.47667155,-0.81785870
1323446150.54557729,-0.36973411,0.47381684,-0.81667405
1323446150.59252548,-0.36588296,0.47764897,-0.81833464
1323446150.64531136,-0.36752447,0.47633725,-0.81777871
1323446150.69431162,-0.36609077,0.47656080,-0.81757462
1323446150.74453020,-0.36716005,0.47499308,-0.81609458
1323446150.79357719,-0.36602738,0.47765318,-0.81859714
1323446150.85265446,-0.36658871,0.47485739,-0.81517142
1323446150.89257932,-0.36736116,0.47380686,-0.81749725
1323446150.94531083,-0.36650148,0.47452700,-0.81821901
1323446150.99251199,-0.36494961,0.47631299,-0.81801957
1323446151.04155850,-0.36910209,0.47525361,-0.81607538
1323446151.09380007,-0.36748189,0.47741207,-0.81759483
1323446151.14448333,-0.36692435,0.47523639,-0.81716692
1323446151.19350457,-0.36592260,0.47727469,-0.81750858
1323446151.24228168,-0.36732945,0.47536376,-0.81744462
1323446151.29249430,-0.36668709,0.47824162,-0.81717533
1323446151.34550452,-0.36685568,0.47486162,-0.81531334
1323446151.39253092,-0.36774215,0.47657233,-0.81702864
1323446151.44451571,-0.36720753,0.47452164,-0.81698477
1323446151.49357629,-0.36679310,0.47703522,-0.81621635
1323446151.54549217,-0.36871248,0.47621033,-0.81593364
1323446151.59250426,-0.36737892,0.47813469,-0.81727445
1323446151.64214873,-0.36607113,0.47605482,-0.81572574
1323446151.69251275,-0.36770883,0.47692806,-0.81709456
1323446151.74150229,-0.36702490,0.47619343,-0.81654274
1323446151.79250860,-0.36633876,0.47906294,-0.81550717
1323446151.84155250,-0.36902693,0.47680250,-0.81525624
1323446151.89354420,-0.36683357,0.47656408,-0.81768066
1323446151.94151711,-0.36796495,0.47644961,-0.81710517
1323446151.99355626,-0.36655912,0.47751966,-0.81729048
1323446152.04452825,-0.36799002,0.47510940,-0.81544209
1323446152.09364247,-0.36695254,0.47608283,-0.81755644
1323446152.14451170,-0.36696133,0.47632322,-0.81698412
1323446152.20153880,-0.36669886,0.47692046,-0.81684679
1323446152.24552274,-0.36664030,0.47573137,-0.81823516
1323446152.29359913,-0.36688808,0.47609234,-0.81799674
1323446152.34563804,-0.36890820,0.47430229,-0.81733084
1323446152.39255738,-0.36684582,0.47610760,-0.81952184
1323446152.44189429,-0.36693695,0.47403622,-0.81683928
1323446152.50165129,-0.36659822,0.47692460,-0.81735039
1323446152.55389690,-0.36661762,0.47464594,-0.81797165
1323446152.59254837,-0.36824194,0.47200960,-0.81727809
1323446152.64451170,-0.36679596,0.47333524,-0.81899029
1323446152.70448041,-0.36611518,0.47574791,-0.82037026
